Phoenix Deer Valley, AZ

6:40 PM MST on March 22, 2017 (GMT -0700)
Phoenix-Deer Valley Municipal

Weather History for KDVT - March, 2014

Change the Weather History Date:

Thursday, March 20, 2014

  Actual Average Record
Temperature  
Mean Temperature 64 °F -  
Max Temperature 78 °F 76 °F 93 °F (1997)
Min Temperature 50 °F 51 °F 39 °F (2012)
Degree Days  
Heating Degree Days 1    
Growing Degree Days 14 (Base 50)    
Moisture  
Dew Point 18 °F    
Average Humidity 18    
Maximum Humidity 32    
Minimum Humidity 8    
Precipitation  
Precipitation 0.00 in - - ()
Sea Level Pressure  
Sea Level Pressure 29.92 in    
Wind  
Wind Speed 4 mph (NW)    
Max Wind Speed 12 mph    
Max Gust Speed -    
Visibility 10 miles    
Events      
Averages and records for this station are not official NWS values.
T = Trace of Precipitation, MM = Missing Value Source: NWS Daily Summary

Daily Weather History Graph

Daily Weather History Graph

Search for Another Location

Airport or City:

Trip Planner

Search our weather history database for the weather conditions in past years. The results will help you decide how hot, cold, wet, or windy it might be!

Date:

Astronomy

Mar. 20, 2014 Rise Set
Actual Time 6:31 AM MST 6:40 PM MST
Civil Twilight 6:07 AM MST 7:04 PM MST
Nautical Twilight 5:38 AM MST 7:33 PM MST
Astronomical Twilight 5:08 AM MST 8:03 PM MST
Moon 10:51 PM MST (3/20) 8:52 AM MST (3/20)
Length of Visible Light 12h 57m
Length of Day
12h 08m
Waning Gibbous, 83% of the Moon is Illuminated
Mar 20
Waning Gibbous
Mar 23
Last Quarter
Mar 30
New
Apr 7
First Quarter
Apr 15
Full

Hourly Weather History & Observations

Time (MST) Temp. Dew Point Humidity Pressure Visibility Wind Dir Wind Speed Gust Speed Precip Events Conditions
12:53 AM 57.9 °F 17.1 °F 20% 29.99 in 10.0 mi North 4.6 mph - N/A   Clear
1:53 AM 57.9 °F 17.1 °F 20% 30.00 in 10.0 mi NNE 11.5 mph - N/A   Clear
2:53 AM 55.9 °F 17.1 °F 22% 29.99 in 10.0 mi NE 5.8 mph - N/A   Clear
3:53 AM 52.0 °F 19.0 °F 27% 29.99 in 10.0 mi Calm Calm - N/A   Clear
4:53 AM 53.1 °F 19.0 °F 26% 29.97 in 10.0 mi Calm Calm - N/A   Clear
5:53 AM 50.0 °F 21.0 °F 32% 29.98 in 10.0 mi Calm Calm - N/A   Clear
6:53 AM 51.1 °F 19.9 °F 29% 30.00 in 10.0 mi Calm Calm - N/A   Clear
7:53 AM 57.9 °F 19.9 °F 23% 30.01 in 10.0 mi Calm Calm - N/A   Clear
8:53 AM 64.0 °F 19.9 °F 18% 30.01 in 10.0 mi Calm Calm - N/A   Clear
9:53 AM 68.0 °F 21.9 °F 17% 29.99 in 10.0 mi Calm Calm - N/A   Clear
10:53 AM 71.1 °F 18.0 °F 13% 29.98 in 10.0 mi South 3.5 mph - N/A   Clear
11:53 AM 73.9 °F 15.1 °F 11% 29.95 in 10.0 mi Calm Calm - N/A   Clear
12:53 PM 75.9 °F 12.0 °F 9% 29.93 in 10.0 mi South 4.6 mph - N/A   Clear
1:53 PM 78.1 °F 12.9 °F 8% 29.89 in 10.0 mi SSW 8.1 mph - N/A   Clear
2:53 PM 78.1 °F 12.9 °F 8% 29.86 in 10.0 mi SSW 8.1 mph - N/A   Clear
3:53 PM 77.0 °F 12.0 °F 8% 29.85 in 10.0 mi SW 4.6 mph - N/A   Clear
4:53 PM 78.1 °F 12.9 °F 8% 29.83 in 10.0 mi NW 3.5 mph - N/A   Clear
5:53 PM 77.0 °F 14.0 °F 9% 29.83 in 10.0 mi NW 5.8 mph - N/A   Clear
6:53 PM 73.0 °F 18.0 °F 12% 29.83 in 10.0 mi WNW 3.5 mph - N/A   Clear
7:53 PM 69.1 °F 21.0 °F 16% 29.83 in 10.0 mi Calm Calm - N/A   Clear
8:53 PM 64.9 °F 24.1 °F 21% 29.83 in 10.0 mi Calm Calm - N/A   Clear
9:53 PM 62.1 °F 27.0 °F 26% 29.83 in 10.0 mi Calm Calm - N/A   Clear
10:53 PM 62.1 °F 24.1 °F 23% 29.83 in 10.0 mi NNE 4.6 mph - N/A   Clear
11:53 PM 61.0 °F 23.0 °F 23% 29.83 in 10.0 mi ENE 4.6 mph - N/A   Clear